owner,sensor,date,latitude,longitude,relative_humidity,qcFlag 
DISL,ioos:station:DISL:MBLA:1,2012-06-01T00:00:00Z,30.4367,-88.0117,71.34,1111122 
DISL,ioos:station:DISL:MBLA:1,2012-06-01T00:30:00Z,30.4367,-88.0117,92.9,1111122 
DISL,ioos:station:DISL:MBLA:1,2012-06-01T01:00:00Z,30.4367,-88.0117,92.7,1111122 
DISL,ioos:station:DISL:MBLA:1,2012-06-01T01:30:00Z,30.4367,-88.0117,88.8,1111122 
DISL,ioos:station:DISL:MBLA:1,2012-06-01T02:00:00Z,30.4367,-88.0117,79.36,1111122 
DISL,ioos:station:DISL:MBLA:1,2012-06-01T02:30:00Z,30.4367,-88.0117,80.7,1111122 
DISL,ioos:station:DISL:MBLA:1,2012-06-01T03:00:00Z,30.4367,-88.0117,80.5,1111122 
DISL,ioos:station:DISL:MBLA:1,2012-06-01T03:30:00Z,30.4367,-88.0117,77.06,1111122 
DISL,ioos:station:DISL:MBLA:1,2012-06-01T04:00:00Z,30.4367,-88.0117,75.16,1111122 
DISL,ioos:station:DISL:MBLA:1,2012-06-01T04:30:00Z,30.4367,-88.0117,75.57,1111122 
DISL,ioos:station:DISL:MBLA:1,2012-06-01T05:00:00Z,30.4367,-88.0117,74.38,1111122 
DISL,ioos:station:DISL:MBLA:1,2012-06-01T05:30:00Z,30.4367,-88.0117,70.28,1111122 
DISL,ioos:station:DISL:MBLA:1,2012-06-01T06:00:00Z,30.4367,-88.0117,72.69,1111122 
DISL,ioos:station:DISL:MBLA:1,2012-06-01T06:30:00Z,30.4367,-88.0117,72.04,1111122 
DISL,ioos:station:DISL:MBLA:1,2012-06-01T07:00:00Z,30.4367,-88.0117,78.41,1111122 
DISL,ioos:station:DISL:MBLA:1,2012-06-01T07:30:00Z,30.4367,-88.0117,77.77,1111122 
DISL,ioos:station:DISL:MBLA:1,2012-06-01T08:00:00Z,30.4367,-88.0117,80.7,1111122 
DISL,ioos:station:DISL:MBLA:1,2012-06-01T08:30:00Z,30.4367,-88.0117,80.0,1111122 
DISL,ioos:station:DISL:MBLA:1,2012-06-01T09:00:00Z,30.4367,-88.0117,94.1,1111122 
DISL,ioos:station:DISL:MBLA:1,2012-06-01T09:30:00Z,30.4367,-88.0117,94.8,1111122 
DISL,ioos:station:DISL:MBLA:1,2012-06-01T10:00:00Z,30.4367,-88.0117,93.2,1111122 
DISL,ioos:station:DISL:MBLA:1,2012-06-01T10:30:00Z,30.4367,-88.0117,84.1,1111122 
DISL,ioos:station:DISL:MBLA:1,2012-06-01T11:00:00Z,30.4367,-88.0117,84.4,1111122 
DISL,ioos:station:DISL:MBLA:1,2012-06-01T11:30:00Z,30.4367,-88.0117,84.0,1111122 
DISL,ioos:station:DISL:MBLA:1,2012-06-01T12:00:00Z,30.4367,-88.0117,83.8,1111122 
DISL,ioos:station:DISL:MBLA:1,2012-06-01T12:30:00Z,30.4367,-88.0117,83.1,1111122 
DISL,ioos:station:DISL:MBLA:1,2012-06-01T13:00:00Z,30.4367,-88.0117,82.4,1111122 
DISL,ioos:station:DISL:MBLA:1,2012-06-01T13:30:00Z,30.4367,-88.0117,82.2,1111122 
DISL,ioos:station:DISL:MBLA:1,2012-06-01T14:00:00Z,30.4367,-88.0117,82.1,1111122 
DISL,ioos:station:DISL:MBLA:1,2012-06-01T14:30:00Z,30.4367,-88.0117,79.8,1111122 
DISL,ioos:station:DISL:MBLA:1,2012-06-01T15:00:00Z,30.4367,-88.0117,78.98,1111122 
DISL,ioos:station:DISL:MBLA:1,2012-06-01T15:30:00Z,30.4367,-88.0117,74.45,1111122 
DISL,ioos:station:DISL:MBLA:1,2012-06-01T16:00:00Z,30.4367,-88.0117,71.8,1111122 
DISL,ioos:station:DISL:MBLA:1,2012-06-01T16:30:00Z,30.4367,-88.0117,68.37,1111122 
DISL,ioos:station:DISL:MBLA:1,2012-06-01T17:00:00Z,30.4367,-88.0117,66.74,1111122 
DISL,ioos:station:DISL:MBLA:1,2012-06-01T17:30:00Z,30.4367,-88.0117,66.84,1111122 
DISL,ioos:station:DISL:MBLA:1,2012-06-01T18:00:00Z,30.4367,-88.0117,62.27,1111122 
DISL,ioos:station:DISL:MBLA:1,2012-06-01T18:30:00Z,30.4367,-88.0117,63.86,1111122 
DISL,ioos:station:DISL:MBLA:1,2012-06-01T19:00:00Z,30.4367,-88.0117,66.63,1111122 
DISL,ioos:station:DISL:MBLA:1,2012-06-01T19:30:00Z,30.4367,-88.0117,66.23,1111122 
DISL,ioos:station:DISL:MBLA:1,2012-06-01T20:00:00Z,30.4367,-88.0117,65.99,1111122 
DISL,ioos:station:DISL:MBLA:1,2012-06-01T20:30:00Z,30.4367,-88.0117,66.19,1111122 
DISL,ioos:station:DISL:MBLA:1,2012-06-01T21:00:00Z,30.4367,-88.0117,63.47,1111122 
DISL,ioos:station:DISL:MBLA:1,2012-06-01T21:30:00Z,30.4367,-88.0117,67.8,1111122 
DISL,ioos:station:DISL:MBLA:1,2012-06-01T22:00:00Z,30.4367,-88.0117,67.47,1111122 
DISL,ioos:station:DISL:MBLA:1,2012-06-01T22:30:00Z,30.4367,-88.0117,62.49,1111122 
DISL,ioos:station:DISL:MBLA:1,2012-06-01T23:00:00Z,30.4367,-88.0117,43.5,1111122 
DISL,ioos:station:DISL:MBLA:1,2012-06-01T23:30:00Z,30.4367,-88.0117,44.0,1111122 
DISL,ioos:station:DISL:MBLA:1,2012-06-02T00:00:00Z,30.4367,-88.0117,52.9,1111122 
DISL,ioos:station:DISL:MBLA:1,2012-06-02T00:30:00Z,30.4367,-88.0117,56.7,1111122 
DISL,ioos:station:DISL:MBLA:1,2012-06-02T01:00:00Z,30.4367,-88.0117,57.56,1111122 
DISL,ioos:station:DISL:MBLA:1,2012-06-02T01:30:00Z,30.4367,-88.0117,51.77,1111122 
DISL,ioos:station:DISL:MBLA:1,2012-06-02T02:00:00Z,30.4367,-88.0117,57.12,1111122 
DISL,ioos:station:DISL:MBLA:1,2012-06-02T02:30:00Z,30.4367,-88.0117,55.87,1111122 
DISL,ioos:station:DISL:MBLA:1,2012-06-02T03:00:00Z,30.4367,-88.0117,55.41,1111122 
DISL,ioos:station:DISL:MBLA:1,2012-06-02T03:30:00Z,30.4367,-88.0117,55.55,1111122 
DISL,ioos:station:DISL:MBLA:1,2012-06-02T04:00:00Z,30.4367,-88.0117,61.13,1111122 
DISL,ioos:station:DISL:MBLA:1,2012-06-02T04:30:00Z,30.4367,-88.0117,63.4,1111122 
DISL,ioos:station:DISL:MBLA:1,2012-06-02T05:00:00Z,30.4367,-88.0117,61.74,1111122 
DISL,ioos:station:DISL:MBLA:1,2012-06-02T05:30:00Z,30.4367,-88.0117,59.03,1111122 
DISL,ioos:station:DISL:MBLA:1,2012-06-02T06:00:00Z,30.4367,-88.0117,64.69,1111122 
DISL,ioos:station:DISL:MBLA:1,2012-06-02T06:30:00Z,30.4367,-88.0117,64.22,1111122 
DISL,ioos:station:DISL:MBLA:1,2012-06-02T07:00:00Z,30.4367,-88.0117,59.99,1111122 
DISL,ioos:station:DISL:MBLA:1,2012-06-02T07:30:00Z,30.4367,-88.0117,55.62,1111122 
DISL,ioos:station:DISL:MBLA:1,2012-06-02T08:00:00Z,30.4367,-88.0117,59.05,1111122 
DISL,ioos:station:DISL:MBLA:1,2012-06-02T08:30:00Z,30.4367,-88.0117,59.6,1111122 
DISL,ioos:station:DISL:MBLA:1,2012-06-02T09:00:00Z,30.4367,-88.0117,61.56,1111122 
DISL,ioos:station:DISL:MBLA:1,2012-06-02T09:30:00Z,30.4367,-88.0117,61.97,1111122 
DISL,ioos:station:DISL:MBLA:1,2012-06-02T10:00:00Z,30.4367,-88.0117,62.68,1111122 
DISL,ioos:station:DISL:MBLA:1,2012-06-02T10:30:00Z,30.4367,-88.0117,62.48,1111122 
DISL,ioos:station:DISL:MBLA:1,2012-06-02T11:00:00Z,30.4367,-88.0117,63.59,1111122 
DISL,ioos:station:DISL:MBLA:1,2012-06-02T11:30:00Z,30.4367,-88.0117,61.43,1111122 
DISL,ioos:station:DISL:MBLA:1,2012-06-02T12:00:00Z,30.4367,-88.0117,59.73,1111122 
DISL,ioos:station:DISL:MBLA:1,2012-06-02T12:30:00Z,30.4367,-88.0117,56.21,1111122 
DISL,ioos:station:DISL:MBLA:1,2012-06-02T13:00:00Z,30.4367,-88.0117,58.58,1111122 
DISL,ioos:station:DISL:MBLA:1,2012-06-02T13:30:00Z,30.4367,-88.0117,58.88,1111122 
DISL,ioos:station:DISL:MBLA:1,2012-06-02T14:00:00Z,30.4367,-88.0117,57.62,1111122 
DISL,ioos:station:DISL:MBLA:1,2012-06-02T14:30:00Z,30.4367,-88.0117,60.12,1111122 
DISL,ioos:station:DISL:MBLA:1,2012-06-02T15:00:00Z,30.4367,-88.0117,54.63,1111122 
DISL,ioos:station:DISL:MBLA:1,2012-06-02T15:30:00Z,30.4367,-88.0117,55.14,1111122 
DISL,ioos:station:DISL:MBLA:1,2012-06-02T16:00:00Z,30.4367,-88.0117,52.23,1111122 
DISL,ioos:station:DISL:MBLA:1,2012-06-02T16:30:00Z,30.4367,-88.0117,52.03,1111122 
DISL,ioos:station:DISL:MBLA:1,2012-06-02T17:00:00Z,30.4367,-88.0117,53.31,1111122 
DISL,ioos:station:DISL:MBLA:1,2012-06-02T17:30:00Z,30.4367,-88.0117,50.47,1111122 
DISL,ioos:station:DISL:MBLA:1,2012-06-02T18:00:00Z,30.4367,-88.0117,50.23,1111122 
DISL,ioos:station:DISL:MBLA:1,2012-06-02T18:30:00Z,30.4367,-88.0117,47.55,1111122 
DISL,ioos:station:DISL:MBLA:1,2012-06-02T19:00:00Z,30.4367,-88.0117,48.5,1111122 
DISL,ioos:station:DISL:MBLA:1,2012-06-02T19:30:00Z,30.4367,-88.0117,44.36,1111122 
DISL,ioos:station:DISL:MBLA:1,2012-06-02T20:00:00Z,30.4367,-88.0117,45.71,1111122 
DISL,ioos:station:DISL:MBLA:1,2012-06-02T20:30:00Z,30.4367,-88.0117,44.18,1111122 
DISL,ioos:station:DISL:MBLA:1,2012-06-02T21:00:00Z,30.4367,-88.0117,48.45,1111122 
DISL,ioos:station:DISL:MBLA:1,2012-06-02T21:30:00Z,30.4367,-88.0117,44.49,1111122 
DISL,ioos:station:DISL:MBLA:1,2012-06-02T22:00:00Z,30.4367,-88.0117,48.0,1111122 
DISL,ioos:station:DISL:MBLA:1,2012-06-02T22:30:00Z,30.4367,-88.0117,54.09,1111122 
DISL,ioos:station:DISL:MBLA:1,2012-06-02T23:00:00Z,30.4367,-88.0117,61.68,1111122 
DISL,ioos:station:DISL:MBLA:1,2012-06-02T23:30:00Z,30.4367,-88.0117,64.33,1111122 
DISL,ioos:station:DISL:MBLA:1,2012-06-03T00:00:00Z,30.4367,-88.0117,61.28,1111122 
DISL,ioos:station:DISL:MBLA:1,2012-06-03T00:30:00Z,30.4367,-88.0117,66.91,1111122 
DISL,ioos:station:DISL:MBLA:1,2012-06-03T01:00:00Z,30.4367,-88.0117,60.08,1111122 
DISL,ioos:station:DISL:MBLA:1,2012-06-03T01:30:00Z,30.4367,-88.0117,64.96,1111122 
DISL,ioos:station:DISL:MBLA:1,2012-06-03T02:00:00Z,30.4367,-88.0117,65.84,1111122 
DISL,ioos:station:DISL:MBLA:1,2012-06-03T02:30:00Z,30.4367,-88.0117,62.39,1111122 
DISL,ioos:station:DISL:MBLA:1,2012-06-03T03:00:00Z,30.4367,-88.0117,64.76,1111122 
DISL,ioos:station:DISL:MBLA:1,2012-06-03T03:30:00Z,30.4367,-88.0117,67.74,1111122 
DISL,ioos:station:DISL:MBLA:1,2012-06-03T04:00:00Z,30.4367,-88.0117,68.42,1111122 
DISL,ioos:station:DISL:MBLA:1,2012-06-03T04:30:00Z,30.4367,-88.0117,68.38,1111122 
DISL,ioos:station:DISL:MBLA:1,2012-06-03T05:00:00Z,30.4367,-88.0117,64.59,1111122 
DISL,ioos:station:DISL:MBLA:1,2012-06-03T05:30:00Z,30.4367,-88.0117,66.72,1111122 
DISL,ioos:station:DISL:MBLA:1,2012-06-03T06:00:00Z,30.4367,-88.0117,62.35,1111122 
DISL,ioos:station:DISL:MBLA:1,2012-06-03T06:30:00Z,30.4367,-88.0117,63.61,1111122 
DISL,ioos:station:DISL:MBLA:1,2012-06-03T07:00:00Z,30.4367,-88.0117,64.59,1111122 
DISL,ioos:station:DISL:MBLA:1,2012-06-03T07:30:00Z,30.4367,-88.0117,62.69,1111122 
DISL,ioos:station:DISL:MBLA:1,2012-06-03T08:00:00Z,30.4367,-88.0117,64.56,1111122 
DISL,ioos:station:DISL:MBLA:1,2012-06-03T08:30:00Z,30.4367,-88.0117,63.81,1111122 
DISL,ioos:station:DISL:MBLA:1,2012-06-03T09:00:00Z,30.4367,-88.0117,66.62,1111122 
DISL,ioos:station:DISL:MBLA:1,2012-06-03T09:30:00Z,30.4367,-88.0117,68.31,1111122 
DISL,ioos:station:DISL:MBLA:1,2012-06-03T10:00:00Z,30.4367,-88.0117,63.1,1111122 
DISL,ioos:station:DISL:MBLA:1,2012-06-03T10:30:00Z,30.4367,-88.0117,67.84,1111122 
DISL,ioos:station:DISL:MBLA:1,2012-06-03T11:00:00Z,30.4367,-88.0117,71.13,1111122 
DISL,ioos:station:DISL:MBLA:1,2012-06-03T11:30:00Z,30.4367,-88.0117,69.3,1111122 
DISL,ioos:station:DISL:MBLA:1,2012-06-03T12:00:00Z,30.4367,-88.0117,71.8,1111122 
DISL,ioos:station:DISL:MBLA:1,2012-06-03T12:30:00Z,30.4367,-88.0117,72.17,1111122 
DISL,ioos:station:DISL:MBLA:1,2012-06-03T13:00:00Z,30.4367,-88.0117,74.7,1111122 
DISL,ioos:station:DISL:MBLA:1,2012-06-03T13:30:00Z,30.4367,-88.0117,74.12,1111122 
DISL,ioos:station:DISL:MBLA:1,2012-06-03T14:00:00Z,30.4367,-88.0117,71.68,1111122 
DISL,ioos:station:DISL:MBLA:1,2012-06-03T14:30:00Z,30.4367,-88.0117,69.95,1111122 
DISL,ioos:station:DISL:MBLA:1,2012-06-03T15:00:00Z,30.4367,-88.0117,68.8,1111122 
DISL,ioos:station:DISL:MBLA:1,2012-06-03T15:30:00Z,30.4367,-88.0117,65.45,1111122 
DISL,ioos:station:DISL:MBLA:1,2012-06-03T16:00:00Z,30.4367,-88.0117,66.4,1111122 
DISL,ioos:station:DISL:MBLA:1,2012-06-03T16:30:00Z,30.4367,-88.0117,62.64,1111122 
DISL,ioos:station:DISL:MBLA:1,2012-06-03T17:00:00Z,30.4367,-88.0117,60.34,1111122 
DISL,ioos:station:DISL:MBLA:1,2012-06-03T17:30:00Z,30.4367,-88.0117,59.93,1111122 
DISL,ioos:station:DISL:MBLA:1,2012-06-03T18:00:00Z,30.4367,-88.0117,65.55,1111122 
DISL,ioos:station:DISL:MBLA:1,2012-06-03T18:30:00Z,30.4367,-88.0117,69.71,1111122 
DISL,ioos:station:DISL:MBLA:1,2012-06-03T19:00:00Z,30.4367,-88.0117,71.41,1111122 
DISL,ioos:station:DISL:MBLA:1,2012-06-03T19:30:00Z,30.4367,-88.0117,72.22,1111122 
DISL,ioos:station:DISL:MBLA:1,2012-06-03T20:00:00Z,30.4367,-88.0117,67.89,1111122 
DISL,ioos:station:DISL:MBLA:1,2012-06-03T20:30:00Z,30.4367,-88.0117,68.7,1111122 
DISL,ioos:station:DISL:MBLA:1,2012-06-03T21:00:00Z,30.4367,-88.0117,72.12,1111122 
DISL,ioos:station:DISL:MBLA:1,2012-06-03T21:30:00Z,30.4367,-88.0117,73.0,1111122 
DISL,ioos:station:DISL:MBLA:1,2012-06-03T22:00:00Z,30.4367,-88.0117,71.51,1111122 
DISL,ioos:station:DISL:MBLA:1,2012-06-03T22:30:00Z,30.4367,-88.0117,69.78,1111122 
DISL,ioos:station:DISL:MBLA:1,2012-06-03T23:00:00Z,30.4367,-88.0117,71.41,1111122 
DISL,ioos:station:DISL:MBLA:1,2012-06-03T23:30:00Z,30.4367,-88.0117,72.73,1111122 
DISL,ioos:station:DISL:MBLA:1,2012-06-04T00:00:00Z,30.4367,-88.0117,71.07,1111122 
DISL,ioos:station:DISL:MBLA:1,2012-06-04T00:30:00Z,30.4367,-88.0117,71.75,1111122 
DISL,ioos:station:DISL:MBLA:1,2012-06-04T01:00:00Z,30.4367,-88.0117,75.2,1111122 
DISL,ioos:station:DISL:MBLA:1,2012-06-04T01:30:00Z,30.4367,-88.0117,77.06,1111122 
DISL,ioos:station:DISL:MBLA:1,2012-06-04T02:00:00Z,30.4367,-88.0117,75.37,1111122 
DISL,ioos:station:DISL:MBLA:1,2012-06-04T02:30:00Z,30.4367,-88.0117,77.2,1111122 
DISL,ioos:station:DISL:MBLA:1,2012-06-04T03:00:00Z,30.4367,-88.0117,76.29,1111122 
DISL,ioos:station:DISL:MBLA:1,2012-06-04T03:30:00Z,30.4367,-88.0117,75.99,1111122 
DISL,ioos:station:DISL:MBLA:1,2012-06-04T04:00:00Z,30.4367,-88.0117,76.86,1111122 
DISL,ioos:station:DISL:MBLA:1,2012-06-04T04:30:00Z,30.4367,-88.0117,76.46,1111122 
DISL,ioos:station:DISL:MBLA:1,2012-06-04T05:00:00Z,30.4367,-88.0117,77.78,1111122 
DISL,ioos:station:DISL:MBLA:1,2012-06-04T05:30:00Z,30.4367,-88.0117,76.16,1111122 
DISL,ioos:station:DISL:MBLA:1,2012-06-04T06:00:00Z,30.4367,-88.0117,76.77,1111122 
DISL,ioos:station:DISL:MBLA:1,2012-06-04T06:30:00Z,30.4367,-88.0117,79.51,1111122 
DISL,ioos:station:DISL:MBLA:1,2012-06-04T07:00:00Z,30.4367,-88.0117,78.9,1111122 
DISL,ioos:station:DISL:MBLA:1,2012-06-04T07:30:00Z,30.4367,-88.0117,79.01,1111122 
DISL,ioos:station:DISL:MBLA:1,2012-06-04T08:00:00Z,30.4367,-88.0117,79.12,1111122 
DISL,ioos:station:DISL:MBLA:1,2012-06-04T08:30:00Z,30.4367,-88.0117,78.84,1111122 
DISL,ioos:station:DISL:MBLA:1,2012-06-04T09:00:00Z,30.4367,-88.0117,79.63,1111122 
DISL,ioos:station:DISL:MBLA:1,2012-06-04T09:30:00Z,30.4367,-88.0117,80.0,1111122 
DISL,ioos:station:DISL:MBLA:1,2012-06-04T10:00:00Z,30.4367,-88.0117,79.36,1111122 
DISL,ioos:station:DISL:MBLA:1,2012-06-04T10:30:00Z,30.4367,-88.0117,76.44,1111122 
DISL,ioos:station:DISL:MBLA:1,2012-06-04T11:00:00Z,30.4367,-88.0117,80.7,1111122 
DISL,ioos:station:DISL:MBLA:1,2012-06-04T11:30:00Z,30.4367,-88.0117,81.4,1111122 
DISL,ioos:station:DISL:MBLA:1,2012-06-04T12:00:00Z,30.4367,-88.0117,83.8,1111122 
DISL,ioos:station:DISL:MBLA:1,2012-06-04T12:30:00Z,30.4367,-88.0117,81.5,1111122 
DISL,ioos:station:DISL:MBLA:1,2012-06-04T13:00:00Z,30.4367,-88.0117,81.1,1111122 
DISL,ioos:station:DISL:MBLA:1,2012-06-04T13:30:00Z,30.4367,-88.0117,79.0,1111122 
DISL,ioos:station:DISL:MBLA:1,2012-06-04T14:00:00Z,30.4367,-88.0117,74.32,1111122 
DISL,ioos:station:DISL:MBLA:1,2012-06-04T14:30:00Z,30.4367,-88.0117,72.8,1111122 
DISL,ioos:station:DISL:MBLA:1,2012-06-04T15:00:00Z,30.4367,-88.0117,67.48,1111122 
DISL,ioos:station:DISL:MBLA:1,2012-06-04T15:30:00Z,30.4367,-88.0117,60.81,1111122 
DISL,ioos:station:DISL:MBLA:1,2012-06-04T16:00:00Z,30.4367,-88.0117,61.99,1111122 
DISL,ioos:station:DISL:MBLA:1,2012-06-04T16:30:00Z,30.4367,-88.0117,60.06,1111122 
DISL,ioos:station:DISL:MBLA:1,2012-06-04T17:00:00Z,30.4367,-88.0117,56.05,1111122 
DISL,ioos:station:DISL:MBLA:1,2012-06-04T17:30:00Z,30.4367,-88.0117,57.54,1111122 
DISL,ioos:station:DISL:MBLA:1,2012-06-04T18:00:00Z,30.4367,-88.0117,63.29,1111122 
DISL,ioos:station:DISL:MBLA:1,2012-06-04T18:30:00Z,30.4367,-88.0117,69.59,1111122 
DISL,ioos:station:DISL:MBLA:1,2012-06-04T19:00:00Z,30.4367,-88.0117,75.04,1111122 
DISL,ioos:station:DISL:MBLA:1,2012-06-04T19:30:00Z,30.4367,-88.0117,74.54,1111122 
DISL,ioos:station:DISL:MBLA:1,2012-06-04T20:00:00Z,30.4367,-88.0117,74.98,1111122 
DISL,ioos:station:DISL:MBLA:1,2012-06-04T20:30:00Z,30.4367,-88.0117,78.81,1111122 
DISL,ioos:station:DISL:MBLA:1,2012-06-04T21:00:00Z,30.4367,-88.0117,74.57,1111122 
DISL,ioos:station:DISL:MBLA:1,2012-06-04T21:30:00Z,30.4367,-88.0117,75.02,1111122 
DISL,ioos:station:DISL:MBLA:1,2012-06-04T22:00:00Z,30.4367,-88.0117,71.26,1111122 
DISL,ioos:station:DISL:MBLA:1,2012-06-04T22:30:00Z,30.4367,-88.0117,72.38,1111122 
DISL,ioos:station:DISL:MBLA:1,2012-06-04T23:00:00Z,30.4367,-88.0117,71.8,1111122 
DISL,ioos:station:DISL:MBLA:1,2012-06-04T23:30:00Z,30.4367,-88.0117,72.95,1111122 
DISL,ioos:station:DISL:MBLA:1,2012-06-05T00:00:00Z,30.4367,-88.0117,69.5,1111122 
DISL,ioos:station:DISL:MBLA:1,2012-06-05T00:30:00Z,30.4367,-88.0117,71.47,1111122 
DISL,ioos:station:DISL:MBLA:1,2012-06-05T01:00:00Z,30.4367,-88.0117,75.74,1111122 
DISL,ioos:station:DISL:MBLA:1,2012-06-05T01:30:00Z,30.4367,-88.0117,79.67,1111122 
DISL,ioos:station:DISL:MBLA:1,2012-06-05T02:00:00Z,30.4367,-88.0117,78.18,1111122 
DISL,ioos:station:DISL:MBLA:1,2012-06-05T02:30:00Z,30.4367,-88.0117,80.2,1111122 
DISL,ioos:station:DISL:MBLA:1,2012-06-05T03:00:00Z,30.4367,-88.0117,77.74,1111122 
DISL,ioos:station:DISL:MBLA:1,2012-06-05T03:30:00Z,30.4367,-88.0117,74.93,1111122 
DISL,ioos:station:DISL:MBLA:1,2012-06-05T04:00:00Z,30.4367,-88.0117,74.52,1111122 
DISL,ioos:station:DISL:MBLA:1,2012-06-05T04:30:00Z,30.4367,-88.0117,77.16,1111122 
DISL,ioos:station:DISL:MBLA:1,2012-06-05T05:00:00Z,30.4367,-88.0117,78.69,1111122 
DISL,ioos:station:DISL:MBLA:1,2012-06-05T05:30:00Z,30.4367,-88.0117,80.0,1111122 
DISL,ioos:station:DISL:MBLA:1,2012-06-05T06:00:00Z,30.4367,-88.0117,80.6,1111122 
DISL,ioos:station:DISL:MBLA:1,2012-06-05T06:30:00Z,30.4367,-88.0117,81.6,1111122 
DISL,ioos:station:DISL:MBLA:1,2012-06-05T07:00:00Z,30.4367,-88.0117,80.2,1111122 
DISL,ioos:station:DISL:MBLA:1,2012-06-05T07:30:00Z,30.4367,-88.0117,81.8,1111122 
DISL,ioos:station:DISL:MBLA:1,2012-06-05T08:00:00Z,30.4367,-88.0117,83.0,1111122 
DISL,ioos:station:DISL:MBLA:1,2012-06-05T08:30:00Z,30.4367,-88.0117,83.0,1111122 
DISL,ioos:station:DISL:MBLA:1,2012-06-05T09:00:00Z,30.4367,-88.0117,83.4,1111122 
DISL,ioos:station:DISL:MBLA:1,2012-06-05T09:30:00Z,30.4367,-88.0117,84.3,1111122 
DISL,ioos:station:DISL:MBLA:1,2012-06-05T10:00:00Z,30.4367,-88.0117,84.7,1111122 
DISL,ioos:station:DISL:MBLA:1,2012-06-05T10:30:00Z,30.4367,-88.0117,85.9,1111122 
DISL,ioos:station:DISL:MBLA:1,2012-06-05T11:00:00Z,30.4367,-88.0117,86.1,1111122 
DISL,ioos:station:DISL:MBLA:1,2012-06-05T11:30:00Z,30.4367,-88.0117,85.5,1111122 
DISL,ioos:station:DISL:MBLA:1,2012-06-05T12:00:00Z,30.4367,-88.0117,83.9,1111122 
DISL,ioos:station:DISL:MBLA:1,2012-06-05T12:30:00Z,30.4367,-88.0117,83.5,1111122 
DISL,ioos:station:DISL:MBLA:1,2012-06-05T13:00:00Z,30.4367,-88.0117,78.56,1111122 
DISL,ioos:station:DISL:MBLA:1,2012-06-05T13:30:00Z,30.4367,-88.0117,77.03,1111122 
DISL,ioos:station:DISL:MBLA:1,2012-06-05T14:00:00Z,30.4367,-88.0117,72.9,1111122 
DISL,ioos:station:DISL:MBLA:1,2012-06-05T14:30:00Z,30.4367,-88.0117,73.74,1111122 
DISL,ioos:station:DISL:MBLA:1,2012-06-05T15:00:00Z,30.4367,-88.0117,74.35,1111122 
DISL,ioos:station:DISL:MBLA:1,2012-06-05T15:30:00Z,30.4367,-88.0117,75.91,1111122 
DISL,ioos:station:DISL:MBLA:1,2012-06-05T16:00:00Z,30.4367,-88.0117,72.73,1111122 
DISL,ioos:station:DISL:MBLA:1,2012-06-05T16:30:00Z,30.4367,-88.0117,72.93,1111122 
DISL,ioos:station:DISL:MBLA:1,2012-06-05T17:00:00Z,30.4367,-88.0117,74.89,1111122 
DISL,ioos:station:DISL:MBLA:1,2012-06-05T17:30:00Z,30.4367,-88.0117,71.37,1111122 
DISL,ioos:station:DISL:MBLA:1,2012-06-05T18:00:00Z,30.4367,-88.0117,78.24,1111122 
DISL,ioos:station:DISL:MBLA:1,2012-06-05T18:30:00Z,30.4367,-88.0117,76.76,1111122 
DISL,ioos:station:DISL:MBLA:1,2012-06-05T19:00:00Z,30.4367,-88.0117,76.62,1111122 
DISL,ioos:station:DISL:MBLA:1,2012-06-05T19:30:00Z,30.4367,-88.0117,75.5,1111122 
DISL,ioos:station:DISL:MBLA:1,2012-06-05T20:00:00Z,30.4367,-88.0117,75.16,1111122 
DISL,ioos:station:DISL:MBLA:1,2012-06-05T20:30:00Z,30.4367,-88.0117,80.1,1111122 
DISL,ioos:station:DISL:MBLA:1,2012-06-05T21:00:00Z,30.4367,-88.0117,78.1,1111122 
DISL,ioos:station:DISL:MBLA:1,2012-06-05T21:30:00Z,30.4367,-88.0117,77.43,1111122 
DISL,ioos:station:DISL:MBLA:1,2012-06-05T22:00:00Z,30.4367,-88.0117,77.19,1111122 
DISL,ioos:station:DISL:MBLA:1,2012-06-05T22:30:00Z,30.4367,-88.0117,82.5,1111122 
DISL,ioos:station:DISL:MBLA:1,2012-06-05T23:00:00Z,30.4367,-88.0117,79.74,1111122 
DISL,ioos:station:DISL:MBLA:1,2012-06-05T23:30:00Z,30.4367,-88.0117,77.7,1111122 
DISL,ioos:station:DISL:MBLA:1,2012-06-06T00:00:00Z,30.4367,-88.0117,79.26,1111122 
DISL,ioos:station:DISL:MBLA:1,2012-06-06T00:30:00Z,30.4367,-88.0117,80.2,1111122 
DISL,ioos:station:DISL:MBLA:1,2012-06-06T01:00:00Z,30.4367,-88.0117,80.3,1111122 
DISL,ioos:station:DISL:MBLA:1,2012-06-06T01:30:00Z,30.4367,-88.0117,81.8,1111122 
DISL,ioos:station:DISL:MBLA:1,2012-06-06T02:00:00Z,30.4367,-88.0117,82.0,1111122 
DISL,ioos:station:DISL:MBLA:1,2012-06-06T02:30:00Z,30.4367,-88.0117,80.4,1111122 
DISL,ioos:station:DISL:MBLA:1,2012-06-06T03:00:00Z,30.4367,-88.0117,80.7,1111122 
DISL,ioos:station:DISL:MBLA:1,2012-06-06T03:30:00Z,30.4367,-88.0117,82.3,1111122 
DISL,ioos:station:DISL:MBLA:1,2012-06-06T04:00:00Z,30.4367,-88.0117,82.5,1111122 
DISL,ioos:station:DISL:MBLA:1,2012-06-06T04:30:00Z,30.4367,-88.0117,83.5,1111122 
DISL,ioos:station:DISL:MBLA:1,2012-06-06T05:00:00Z,30.4367,-88.0117,84.1,1111122 
DISL,ioos:station:DISL:MBLA:1,2012-06-06T05:30:00Z,30.4367,-88.0117,84.6,1111122 
DISL,ioos:station:DISL:MBLA:1,2012-06-06T06:00:00Z,30.4367,-88.0117,86.1,1111122 
DISL,ioos:station:DISL:MBLA:1,2012-06-06T06:30:00Z,30.4367,-88.0117,85.7,1111122 
DISL,ioos:station:DISL:MBLA:1,2012-06-06T07:00:00Z,30.4367,-88.0117,86.3,1111122 
DISL,ioos:station:DISL:MBLA:1,2012-06-06T07:30:00Z,30.4367,-88.0117,87.2,1111122 
DISL,ioos:station:DISL:MBLA:1,2012-06-06T08:00:00Z,30.4367,-88.0117,85.3,1111122 
DISL,ioos:station:DISL:MBLA:1,2012-06-06T08:30:00Z,30.4367,-88.0117,86.5,1111122 
DISL,ioos:station:DISL:MBLA:1,2012-06-06T09:00:00Z,30.4367,-88.0117,85.9,1111122 
DISL,ioos:station:DISL:MBLA:1,2012-06-06T09:30:00Z,30.4367,-88.0117,84.1,1111122 
DISL,ioos:station:DISL:MBLA:1,2012-06-06T10:00:00Z,30.4367,-88.0117,83.8,1111122 
DISL,ioos:station:DISL:MBLA:1,2012-06-06T10:30:00Z,30.4367,-88.0117,83.7,1111122 
DISL,ioos:station:DISL:MBLA:1,2012-06-06T11:00:00Z,30.4367,-88.0117,84.8,1111122 
DISL,ioos:station:DISL:MBLA:1,2012-06-06T11:30:00Z,30.4367,-88.0117,84.3,1111122 
DISL,ioos:station:DISL:MBLA:1,2012-06-06T12:00:00Z,30.4367,-88.0117,83.0,1111122 
DISL,ioos:station:DISL:MBLA:1,2012-06-06T12:30:00Z,30.4367,-88.0117,76.82,1111122 
DISL,ioos:station:DISL:MBLA:1,2012-06-06T13:00:00Z,30.4367,-88.0117,73.47,1111122 
DISL,ioos:station:DISL:MBLA:1,2012-06-06T13:30:00Z,30.4367,-88.0117,76.11,1111122 
DISL,ioos:station:DISL:MBLA:1,2012-06-06T14:00:00Z,30.4367,-88.0117,75.28,1111122 
DISL,ioos:station:DISL:MBLA:1,2012-06-06T14:30:00Z,30.4367,-88.0117,69.76,1111122 
DISL,ioos:station:DISL:MBLA:1,2012-06-06T15:00:00Z,30.4367,-88.0117,73.18,1111122 
DISL,ioos:station:DISL:MBLA:1,2012-06-06T15:30:00Z,30.4367,-88.0117,70.68,1111122 
DISL,ioos:station:DISL:MBLA:1,2012-06-06T16:00:00Z,30.4367,-88.0117,73.45,1111122 
DISL,ioos:station:DISL:MBLA:1,2012-06-06T16:30:00Z,30.4367,-88.0117,77.48,1111122 
DISL,ioos:station:DISL:MBLA:1,2012-06-06T17:00:00Z,30.4367,-88.0117,78.77,1111122 
DISL,ioos:station:DISL:MBLA:1,2012-06-06T17:30:00Z,30.4367,-88.0117,74.64,1111122 
DISL,ioos:station:DISL:MBLA:1,2012-06-06T18:00:00Z,30.4367,-88.0117,70.44,1111122 
DISL,ioos:station:DISL:MBLA:1,2012-06-06T18:30:00Z,30.4367,-88.0117,68.34,1111122 
DISL,ioos:station:DISL:MBLA:1,2012-06-06T19:00:00Z,30.4367,-88.0117,67.32,1111122 
DISL,ioos:station:DISL:MBLA:1,2012-06-06T19:30:00Z,30.4367,-88.0117,70.2,1111122 
DISL,ioos:station:DISL:MBLA:1,2012-06-06T20:00:00Z,30.4367,-88.0117,75.24,1111122 
DISL,ioos:station:DISL:MBLA:1,2012-06-06T20:30:00Z,30.4367,-88.0117,78.69,1111122 
DISL,ioos:station:DISL:MBLA:1,2012-06-06T21:00:00Z,30.4367,-88.0117,74.67,1111122 
DISL,ioos:station:DISL:MBLA:1,2012-06-06T21:30:00Z,30.4367,-88.0117,74.4,1111122 
DISL,ioos:station:DISL:MBLA:1,2012-06-06T22:00:00Z,30.4367,-88.0117,76.84,1111122 
DISL,ioos:station:DISL:MBLA:1,2012-06-06T22:30:00Z,30.4367,-88.0117,78.06,1111122 
DISL,ioos:station:DISL:MBLA:1,2012-06-06T23:00:00Z,30.4367,-88.0117,82.0,1111122 
DISL,ioos:station:DISL:MBLA:1,2012-06-06T23:30:00Z,30.4367,-88.0117,78.67,1111122 
DISL,ioos:station:DISL:MBLA:1,2012-06-07T00:00:00Z,30.4367,-88.0117,82.2,1111122 